THOR ABLESTAR DEB, 706

Orbit data source: Space-Track

THOR ABLESTAR DEB, 706 is space debris in LEO originally from a launch on Thu, 05 Dec 1963 UTC launched from the Air Force Western Test Range (AFWTR). Debris objects in space refer to the collection of defunct objects orbiting the Earth. Examples of debris include non-operational satellites, rocket bodies, and fragments generated from explosions, collisions, or faulty payload assembly.

Loading next visibility...
Identifier
706, 1963-049D
Orbit
LEO
Country
Flag of USUS
Related business
Manufacturer
Unknown
Mission
Spacecraft
Bus & Motor
Unknown
Mass
Unknown
Launch date (UTC)
1963-12-05 (62 years ago)
Launch vehicle
Unknown
Launch site
Air Force Western Test Range (AFWTR)
Object type
Payload
Rocket body
Debris
Shape & HBR
Unknown shape, 0.1 m
Radar Cross Section
Small (<0.1 m²)

Expand to show TLE details & history
Last TLE update: 10 hours ago

TLE from 10 hours ago
0 THOR ABLESTAR DEB
1 00706U 63049D   25292.18500369  .00000392  00000-0  54063-3 0  9992
2 00706  89.9129  75.1399 0027906  47.4937 131.4754 13.56476281 50637
Epoch: 2025-10-19T04:26Z
TLE epoch observation values (Epoch: 2025-10-19T04:26:24.318Z)
Latitude
0.68062°
Longitude
160.63224°
Altitude
1,065.164 km
Speed
7.313 km/s
True Right ascension
17h 00m 33s
True Declination
0° 40' 36"
Sunlit
Object was in daylight at epoch
Visualization orbit readout
Latitude
Unknown
Longitude
Unknown
Altitude
Unknown
Speed
Unknown
Apparent Right ascension
Unknown
Apparent Declination
Unknown
Sunlit
N/A
Visualization observer readout
Local Sidereal Time
09:40:52
Azimuth
Unknown
Elevation
Unknown
Doppler factor
Unknown
Orbital elements
Apogee altitude
1,066.283 km
Perigee altitude
1,024.85 km
Semi-major axis
7,423.703 km
Eccentricity
0.00279
Inclination
89.9129°
RAAN
75.1399°
Arg. of periapsis
47.4937°
True anomaly
131.71444°
Mean anomaly
131.4754°
Eccentric anomaly
131.59497°
Mean motion
3.39322 °/min
Orbital period
106.09 mins
BSTAR
0.00054063
Loading maneuver chart data...
Computing Atmospheric mass density...
Loading historical data...
Loading historical data...
Loading historical data...
Loading historical data...
Loading historical data...
Loading historical data...
Loading historical data...

Documentation

Showing up to 5 results
|